{"data":{"norad_id":54113,"epoch":"2026-05-25T03:53:25.243008Z","epoch_age_seconds":54907,"freshness":"FRESH","line1":"1 54113U 22138A   26145.16209772  .00000144  00000+0  32614-3 0  9999","line2":"2 54113  87.9159 309.5553 0001663  89.3613 270.7710 13.19726843173796","mean_motion":13.19726843,"eccentricity":0.0001663,"inclination_deg":87.9159,"raan_deg":309.5553,"arg_perigee_deg":89.3613,"mean_anomaly_deg":270.771,"bstar":0.00032614,"rev_number":17379,"period_min":109.11348872215,"perigee_km":1184.5056333378,"apogee_km":1187.0213866474,"semimajor_km":7563.9005099926,"source":"CELESTRAK","updated_at":"2026-05-25T13:38:22.583800Z"}}